Regional Weather Roundup
Issued by NWS

Home | Current Version | Previous Version | Graphics & Text | Print | Product List | Glossary On
Versions: 1 2 3 4 5 6 7 8 9 10 11 12 13 14 15 16 17 18 19 20 21 22 23 24 25 26 27 28 29 30 31 32 33 34 35 36 37 38 39 40 41 42 43 44 45 46 47 48 49 50
000
ASUS43 KFSD 220902
RWRSD

WEATHER ROUNDUP FOR SOUTH DAKOTA
NATIONAL WEATHER SERVICE SIOUX FALLS SD
400 AM CDT MON SEP 22 2014

NOTE: "FAIR" INDICATES FEW OR NO CLOUDS BELOW 12,000 FEET WITH NO
SIGNIFICANT WEATHER AND/OR OBSTRUCTIONS TO VISIBILITY.


SDZ001>005-009-010-012>017-221000-
NORTHWEST AND NORTH CENTRAL SOUTH DAKOTA

CITY           SKY/WX    TMP DP  RH WIND       PRES   REMARKS
FAITH            N/A     46  39  76 S16       30.18S
MOBRIDGE       CLEAR     47  46  97 SE8       30.18F
$$

SDZ012>016-024>037-041>051-057-063-072>074-221000-
SOUTHWEST AND SOUTH CENTRAL SOUTH DAKOTA

CITY           SKY/WX    TMP DP  RH WIND       PRES   REMARKS
RAPID CTY ARPT CLEAR     48  38  68 SE9       30.18F
PIERRE         CLEAR     47  41  80 SE9       30.21S
CUSTER         CLEAR     52  37  56 SW3       30.27F
ELLSWORTH AFB  CLEAR     52  38  59 SE9       30.17F
PHILIP         CLEAR     51  39  63 SE6       30.20F
PINE RIDGE     CLOUDY    62  37  39 S18G28    30.20F
WINNER         FAIR      52  42  69 S9        30.25S
$$

SDZ004>011-016>023-039-040-221000-
NORTHEAST SOUTH DAKOTA

CITY           SKY/WX    TMP DP  RH WIND       PRES   REMARKS
ABERDEEN       CLEAR     39  38  96 S5        30.23S
WATERTOWN      CLEAR     44  42  93 S5        30.25R
SISSETON         N/A     45  44  97 S5        30.20F
$$

SDZ017-020-022-023-036>040-048>070-221000-
SOUTHEAST SOUTH DAKOTA

CITY           SKY/WX    TMP DP  RH WIND       PRES   REMARKS
SIOUX FALLS    CLEAR     45  43  93 CALM      30.27F
HURON          CLEAR     50  43  77 S5        30.24S
CHAMBERLAIN    CLEAR     46  42  86 CALM      30.25S
MITCHELL       CLEAR     45  43  93 SE3       30.26F
YANKTON        CLEAR     45  43  93 NE3       30.28S
$$

ABBREVIATIONS USED IN REMARKS
   TC - TEMPERATURE IN CELSIUS
  WCI - WIND CHILL INDEX
   HX - HEAT INDEX
  VSB - VISIBILITY




USA.gov is the U.S. government's official web portal to all federal, state and local government web resources and services.